Showing default

PRAETORIAN SDA_612, 65575

Orbit data source: Space-Track

PRAETORIAN SDA_612, 65575 is a payload satellite owned by SDA (US) in LEO that was launched on Wed, 10 Sep 2025 UTC via an FALCON 9 launch vehicle from the Air Force Western Test Range (AFWTR). Payload-class satellites include a variety of spacecraft equipped with specific instruments for various scientific and technological missions. These include communications satellites like Starlink; space stations such as the ISS; scientific satellites like the Hubble; Earth observation satellites from companies like Planet Labs, Umbra, and HawkEye 360; GPS; miniature CubeSats for education and research; and military/defense satellites.

Loading next visibility...
Identifier
65575, 2025-203L
Orbit
LEO
Country
Flag of USUS
Related business
Manufacturer
York Space Sys
Mission
Operational Defense Communications
Bus & Motor
S-CLASS, Unknown motor
Mass
~300 kg wet, ~300 kg dry
Launch date (UTC)
2025-09-10 (9 months ago)
Launch vehicle
FALCON 9
Launch site
Air Force Western Test Range (AFWTR)
Object type
Payload
Rocket body
Debris
Shape & HBR
Box + 4 Pan, 14.5 m
Radar Cross Section
1.244 m², Large (>1 m²)

Expand to show TLE details & history
Last TLE update: 13 hours ago

TLE from 13 hours ago
0 PRAETORIAN SDA_612
1 65575U 25203L   26171.29704375  .00000145  00000-0  11763-3 0  9995
2 65575  81.3031   7.6333 0009209 178.0136 182.1060 13.85039458 39145
Epoch: 2026-06-20T07:07Z
TLE epoch observation values (Epoch: 2026-06-20T07:07:44.579Z)
Latitude
0.00007°
Longitude
-7.81613°
Altitude
955.675 km
Speed
7.371 km/s
True Right ascension
00h 30m 31s
True Declination
0° 00' 00"
Sunlit
Object was in daylight at epoch
Visualization orbit readout
Latitude
Unknown
Longitude
Unknown
Altitude
Unknown
Speed
Unknown
Apparent Right ascension
Unknown
Apparent Declination
Unknown
Sunlit
N/A
Visualization observer readout
Local Sidereal Time
07:13:07
Azimuth
Unknown
Elevation
Unknown
Doppler factor
Unknown
Orbital elements
Apogee altitude
950.014 km
Perigee altitude
936.529 km
Semi-major axis
7,321.409 km
Eccentricity
0.00092
Inclination
81.3031°
RAAN
7.6333°
Arg. of periapsis
178.0136°
True anomaly
182.10213°
Mean anomaly
182.106°
Eccentric anomaly
182.10406°
Mean motion
3.46458 °/min
Orbital period
103.91 mins
BSTAR
0.00011763
Loading maneuver chart data...
Computing Atmospheric mass density...

Documentation

Showing up to 5 results
|